Starlink 31303

operational
NORAD ID: 59239 Int'l Des: 2024-049 Owner: SPXS Country: US Constellation: starlink
LEOCIRCULAR

关于 Starlink 31303

正在加载描述...

实时位置

正在加载3D地球...

即将过境

高度历史

Altitude vs Time

uPlot chart will show altitude changes over time

两行轨道根数

1 59239U 24049J 25352.10621743 -.00002082 00000-0 -66201-4 0 9991
2 59239 43.0008 233.4259 0000882 267.8561 92.2190 15.27570322100059
Epoch: Dec 18, 2025 • Age: 11 hours

当前状态

高度 494.2 km
速度 7.62 km/s
星下点 -39.17°S, 115.41°W
发射日期 Mar 16, 2024
运行时间 1.7 years
类型 internet

技术详情

分类 Payload
质量 730.00 kg
干质量 700.00 kg
总质量 730.00 kg
长度 0.30 m
直径 4.10 m
跨度 29.00 m
形状 Box + pan
制造商 SPXS
平台类型 Starlink V2M
阶段状态 In Orbit
所有者/国家 SPXS/US

大型星座

Loading constellations...